TimeCDT,TemperatureF,Dew PointF,Humidity,Sea Level PressureIn,VisibilityMPH,Wind Direction,Wind SpeedMPH,Gust SpeedMPH,PrecipitationIn,Events,Conditions,WindDirDegrees,DateUTC
12:55 AM,53.1,48.0,83,29.97,10.0,ESE,4.6,-,N/A,,Clear,120,2013-09-23 05:55:00
1:55 AM,50.0,46.0,86,29.97,10.0,ESE,4.6,-,N/A,,Clear,120,2013-09-23 06:55:00
2:55 AM,48.0,46.0,93,29.97,10.0,Calm,Calm,-,N/A,,Clear,0,2013-09-23 07:55:00
3:55 AM,48.9,46.0,90,29.96,10.0,ESE,4.6,-,N/A,,Clear,120,2013-09-23 08:55:00
4:55 AM,50.0,46.0,86,29.97,10.0,ESE,5.8,-,N/A,,Clear,120,2013-09-23 09:55:00
5:55 AM,48.9,46.0,90,29.98,10.0,SE,5.8,-,N/A,,Clear,130,2013-09-23 10:55:00
6:55 AM,48.9,46.0,90,30.00,10.0,SE,5.8,-,N/A,,Clear,130,2013-09-23 11:55:00
7:55 AM,53.1,48.9,86,30.00,10.0,SE,9.2,-,N/A,,Clear,140,2013-09-23 12:55:00
8:55 AM,59.0,51.1,75,30.01,10.0,SSE,10.4,-,N/A,,Clear,150,2013-09-23 13:55:00
9:55 AM,66.0,51.1,59,30.01,10.0,SSE,11.5,-,N/A,,Clear,160,2013-09-23 14:55:00
10:55 AM,70.0,50.0,49,30.02,10.0,SSE,15.0,-,N/A,,Clear,160,2013-09-23 15:55:00
11:55 AM,72.0,48.9,44,30.01,10.0,SSE,10.4,17.3,N/A,,Clear,160,2013-09-23 16:55:00
12:55 PM,73.9,48.9,41,29.99,10.0,SSE,12.7,18.4,N/A,,Clear,160,2013-09-23 17:55:00
1:55 PM,75.9,48.0,37,29.96,10.0,SE,9.2,19.6,N/A,,Clear,140,2013-09-23 18:55:00
2:55 PM,77.0,46.9,34,29.94,10.0,SE,12.7,25.3,N/A,,Clear,130,2013-09-23 19:55:00
3:55 PM,75.9,46.9,36,29.92,10.0,SE,15.0,-,N/A,,Clear,140,2013-09-23 20:55:00
4:55 PM,75.9,46.9,36,29.91,10.0,ESE,16.1,-,N/A,,Clear,120,2013-09-23 21:55:00
5:55 PM,73.9,46.9,38,29.90,10.0,ESE,16.1,21.9,N/A,,Clear,120,2013-09-23 22:55:00
6:55 PM,69.1,48.0,47,29.90,10.0,ESE,10.4,-,N/A,,Clear,120,2013-09-23 23:55:00
7:55 PM,64.9,51.1,61,29.90,10.0,ESE,10.4,-,N/A,,Clear,110,2013-09-24 00:55:00
8:55 PM,63.0,51.1,65,29.91,10.0,ESE,11.5,-,N/A,,Clear,120,2013-09-24 01:55:00
9:55 PM,60.1,51.1,72,29.94,10.0,SSE,8.1,-,N/A,,Clear,160,2013-09-24 02:55:00
10:55 PM,57.9,50.0,75,29.94,10.0,SE,8.1,-,N/A,,Clear,130,2013-09-24 03:55:00
11:55 PM,55.0,48.9,80,29.94,10.0,SE,5.8,-,N/A,,Clear,130,2013-09-24 04:55:00